Regional Weather Roundup
Issued by NWS Bismarck, ND

Home | Current Version | Previous Version | Text Only | Print | Product List | Glossary On
Versions: 1 2 3 4 5 6 7 8 9 10 11 12 13 14 15 16 17 18 19 20 21 22 23 24 25 26 27 28 29 30 31 32 33 34 35 36 37 38 39 40 41 42 43 44 45 46 47 48 49 50
000
ASUS43 KBIS 191010
RWRBIS

NWR BROADCAST TEXT
NATIONAL WEATHER SERVICE BISMARCK ND
400 AM CST THU JAN 19 2017

NOTE: "FAIR" INDICATES FEW OR NO CLOUDS BELOW 12,000 FEET WITH NO
SIGNIFICANT WEATHER AND/OR OBSTRUCTIONS TO VISIBILITY.


CITY           SKY/WX    TMP DP  RH WIND       PRES   REMARKS
WILLISTON      FAIR      20  19  96 CALM      29.52F
MINOT          FAIR      27  22  81 SE3       29.49F
MINOT AFB      FAIR      28  23  83 SW6       29.48F
BISMARCK       FAIR      19  14  81 CALM      29.56F
DICKINSON      FAIR      24  18  77 S3        29.50F
GARRISON         N/A     18  15  88 E3        29.50F
HETTINGER ARPT FAIR      13  10  88 CALM      29.55F
JAMESTOWN      FAIR      20  15  81 S9        29.58S WCI   9
CARRINGTON     FAIR      25  19  80 CALM      29.58R
HAZEN            N/A    N/A N/A N/A S7        29.54F
MANDAN         FAIR      23  18  80 W5        29.55F WCI  17
RUGBY            N/A     25  21  86 S7        29.50F WCI  17
STANLEY        FAIR      32  25  74 VRB5G17   29.51F
TIOGA          FAIR      25  25 100 SW7       29.52S WCI  17
WATFORD CITY   FAIR      21  18  86 CALM      29.52S
$$

CITY           SKY/WX    TMP DP  RH WIND       PRES   REMARKS
GRAND FORKS    FAIR      25  19  78 S12       29.61R WCI  14
GRAND FORKS AF FAIR      25  19  77 S10       29.60R WCI  14
DEVILS LAKE    FAIR      25  19  78 S6        29.56S WCI  18
FARGO          FAIR      27  25  92 S13       29.64F WCI  16
CAVALIER         N/A     23  19  86 S12       29.56S WCI  12
GRAFTON        FAIR      21  19  93 SE14      29.60S WCI   8
GWINNER          N/A     19  19 100 S12       29.63F VSB 1/4 WCI   7
ROLLA            N/A    N/A N/A N/A MISG        N/A
$$

CITY           SKY/WX    TMP DP  RH WIND       PRES   REMARKS
ABERDEEN       FOG       18  14  84 SW6       29.63F VSB 1/4 WCI  10
MOBRIDGE       FAIR      15  10  80 CALM      29.56F
BUFFALO          N/A     24  17  74 W8        29.47F WCI  15
RAPID CITY     FAIR      26  19  74 NW3       29.54F
GLASGOW        FAIR      25  21  85 SE9       29.48S WCI  15
SIDNEY         FAIR      20  17  88 S13       29.52F WCI   7
WOLF POINT     FAIR      13  10  88 CALM      29.51F
GLENDIVE       FAIR      19  16  88 S5        29.52F WCI  12
MILES CITY     FAIR      24  17  74 S7        29.52F WCI  16
BAKER          FAIR      18  11  74 CALM      29.53F
$$

CITY           SKY/WX    TMP DP  RH WIND       PRES   REMARKS
BILLINGS       FAIR      34  19  54 SW16      29.52F
GREAT FALLS    FAIR      41  25  53 S15       29.46S
REGINA         CLEAR     32  27  80 SW13      29.41S
ESTEVAN        PTCLDY    27  21  80 SW12      29.47F WCI  16
$$





USA.gov is the U.S. government's official web portal to all federal, state and local government web resources and services.